Regional Weather Roundup
Issued by NWS Albany, NY

Home | Current Version | Previous Version | Graphics & Text | Print | Product List | Glossary On
Versions: 1 2 3 4 5 6 7 8 9 10 11 12 13 14 15 16 17 18 19 20 21 22 23 24 25 26 27 28 29 30 31 32 33 34 35 36 37 38 39 40 41 42 43 44 45 46 47 48 49 50
000
ASUS41 KALY 201010
RWRALY

NEW YORK STATE HOURLY WEATHER ROUNDUP
NATIONAL WEATHER SERVICE ALBANY NY
600 AM EDT MON OCT 20 2014

NOTE: "FAIR" INDICATES FEW OR NO CLOUDS BELOW 12,000 FEET WITH NO
SIGNIFICANT WEATHER AND/OR NO OBSTRUCTIONS TO VISIBILITY.

NYZ032-033-038>043-046>054-057>066-NYZ062>081-201100-
EAST


CITY           SKY/WX    TMP DP  RH WIND       PRES   REMARKS
ALBANY         PTCLDY    31  27  85 SE3       30.05S
GLENS FALLS    CLEAR     29  25  85 CALM      30.03S
POUGHKEEPSIE   CLEAR     32  29  88 CALM      30.08R
NEWBURGH       CLEAR     36  28  75 CALM      30.07S
MONTGOMERY     PTCLDY    34  29  82 SW6       30.07R WCI  29
WHITE PLAINS   PTCLDY    38  30  73 SW5       30.07R WCI  34
ISLIP          MOCLDY    36  30  79 CALM      30.07S
NEW YORK CITY  MOCLDY    44  29  55 W7        30.10R
CENTRAL PARK   PTCLDY    42  29  59 CALM      30.12R
$$

NYZ005>009-017-018-044>046-055-056-201100-
CENTRAL


CITY           SKY/WX    TMP DP  RH WIND       PRES   REMARKS
FULTON         CLOUDY    41  35  79 S8        29.98F
SYRACUSE       MOCLDY    42  34  73 CALM      30.00S
ROME           PTCLDY    35  32  88 E5        30.02F WCI  31
ELMIRA         MOCLDY    33  31  92 CALM      30.02F
BINGHAMTON     MOCLDY    33  28  81 S3        30.00S
MONTICELLO     MOCLDY    30  27  86 SW5       30.04S WCI  25
$$

NYZ026>034-041>043-201100-
NORTH


CITY           SKY/WX    TMP DP  RH WIND       PRES   REMARKS
WATERTOWN      MOCLDY    39  31  72 CALM      29.97F
FORT DRUM      NOT AVBL
MASSENA        PTCLDY    30  28  92 CALM      29.99F
SARANAC LAKE   CLOUDY    28  26  92 SW6       29.93F WCI  22
PLATTSBURGH    PTCLDY    28  26  92 CALM      29.99F
$$

NYZ001>004-010>016-019>021-201100-
WEST


CITY           SKY/WX    TMP DP  RH WIND       PRES   REMARKS
NIAGARA FALLS  CLOUDY    44  37  76 S6        29.92F
BUFFALO        MOCLDY    45  36  70 S8        29.93F
DUNKIRK        MOCLDY    45  35  68 S14G23    29.94F
JAMESTOWN      CLOUDY    37  32  81 S6        29.96F WCI  33
WELLSVILLE     MOCLDY    39  30  70 SW3       29.97F
ROCHESTER      CLOUDY    43  35  73 SW7       29.97F
PENN YAN       MOCLDY    41  34  76 SW8       29.98F
$$

             KEY
       WCI = WIND CHILL INDEX
       VSB = VISIBILITY
       HX  = HEAT INDEX
$$


USA.gov is the U.S. government's official web portal to all federal, state and local government web resources and services.